Data start date =,10/1/1934
Data end date/time =,5/5/2024 12:00
Vertical Datum =,MSL1912
""
Date/Time,LockDam_06-Tailwater
,Elev
UTC,ft
,Ave
10/2/1934 12:00,638.16
10/3/1934 12:00,638.16
10/4/1934 12:00,638.08
10/5/1934 12:00,637.86
10/6/1934 12:00,637.53
10/7/1934 12:00,637.29
10/8/1934 12:00,637.10
10/9/1934 12:00,636.69
10/10/1934 12:00,636.34
10/11/1934 12:00,636.10
10/12/1934 12:00,635.91
10/13/1934 12:00,635.78
10/14/1934 12:00,635.56
10/15/1934 12:00,635.35
10/16/1934 12:00,635.14
10/17/1934 12:00,634.83
10/18/1934 12:00,634.81
10/19/1934 12:00,634.68
10/20/1934 12:00,634.68
10/21/1934 12:00,635.07
10/22/1934 12:00,635.41
10/23/1934 12:00,635.54
10/24/1934 12:00,635.76
10/25/1934 12:00,636.00
10/26/1934 12:00,636.36
10/27/1934 12:00,636.47
10/28/1934 12:00,636.80
10/29/1934 12:00,636.90
10/30/1934 12:00,636.85
10/31/1934 12:00,636.76
11/1/1934 12:00,636.54
11/2/1934 12:00,636.40
11/3/1934 12:00,636.22
11/4/1934 12:00,636.16
11/5/1934 12:00,636.13
11/6/1934 12:00,636.04
11/7/1934 12:00,635.91
11/8/1934 12:00,635.86
11/9/1934 12:00,635.91
11/10/1934 12:00,635.75
11/11/1934 12:00,635.62
11/12/1934 12:00,635.52
11/13/1934 12:00,635.30
11/14/1934 12:00,635.14
11/15/1934 12:00,635.02
11/16/1934 12:00,634.94
11/17/1934 12:00,634.83
11/18/1934 12:00,634.78
11/19/1934 12:00,634.80
11/20/1934 12:00,634.90
11/21/1934 12:00,635.04
11/22/1934 12:00,635.36
11/23/1934 12:00,635.80
11/24/1934 12:00,636.35
11/25/1934 12:00,637.46
11/26/1934 12:00,637.68
11/27/1934 12:00,637.64
11/28/1934 12:00,637.56
11/29/1934 12:00,637.54
11/30/1934 12:00,637.66
12/1/1934 12:00,637.71
12/2/1934 12:00,637.66
12/3/1934 12:00,637.63
12/4/1934 12:00,637.37
12/5/1934 12:00,637.09
12/6/1934 12:00,636.77
12/7/1934 12:00,636.41
12/8/1934 12:00,636.22
12/9/1934 12:00,635.98
12/10/1934 12:00,635.86
12/11/1934 12:00,637.02
12/12/1934 12:00,637.45
12/13/1934 12:00,637.27
12/14/1934 12:00,637.60
12/15/1934 12:00,637.88
12/16/1934 12:00,637.66
12/17/1934 12:00,637.73
12/18/1934 12:00,637.89
12/19/1934 12:00,637.93
12/20/1934 12:00,637.97
12/21/1934 12:00,637.79
12/22/1934 12:00,637.56
12/23/1934 12:00,637.50
12/24/1934 12:00,637.34
12/25/1934 12:00,636.77
12/26/1934 12:00,636.37
12/27/1934 12:00,636.14
12/28/1934 12:00,635.38
12/29/1934 12:00,635.10
12/30/1934 12:00,635.44
12/31/1934 12:00,635.86
1/1/1935 12:00,636.32
1/2/1935 12:00,636.60
1/3/1935 12:00,636.77
1/4/1935 12:00,636.89
1/5/1935 12:00,636.88
1/6/1935 12:00,636.79
1/7/1935 12:00,636.70
1/8/1935 12:00,636.73
1/9/1935 12:00,636.80
1/10/1935 12:00,636.84
1/11/1935 12:00,636.86
1/12/1935 12:00,636.88
1/13/1935 12:00,636.76
1/14/1935 12:00,636.69
1/15/1935 12:00,636.43
1/16/1935 12:00,636.55
1/17/1935 12:00,636.62
1/18/1935 12:00,636.44
1/19/1935 12:00,636.44
1/20/1935 12:00,636.59
1/21/1935 12:00,636.69
1/22/1935 12:00,636.52
1/23/1935 12:00,636.48
1/24/1935 12:00,636.55
1/25/1935 12:00,636.56
1/26/1935 12:00,636.54
1/27/1935 12:00,636.59
1/28/1935 12:00,636.65
1/29/1935 12:00,636.66
1/30/1935 12:00,636.69
1/31/1935 12:00,636.68
2/1/1935 12:00,636.70
2/2/1935 12:00,636.76
2/3/1935 12:00,636.83
2/4/1935 12:00,636.87
2/5/1935 12:00,636.87
2/6/1935 12:00,636.87
2/7/1935 12:00,636.81
2/8/1935 12:00,636.81
2/9/1935 12:00,636.86
2/10/1935 12:00,636.84
2/11/1935 12:00,636.90
2/12/1935 12:00,636.88
2/13/1935 12:00,636.92
2/14/1935 12:00,636.95
2/15/1935 12:00,637.06
2/16/1935 12:00,637.21
2/17/1935 12:00,637.30
2/18/1935 12:00,637.39
2/19/1935 12:00,637.44
2/20/1935 12:00,637.41
2/21/1935 12:00,637.41
2/22/1935 12:00,637.43
2/23/1935 12:00,637.48
2/24/1935 12:00,637.58
2/25/1935 12:00,637.27
2/26/1935 12:00,636.32
2/27/1935 12:00,636.50
2/28/1935 12:00,636.81
3/1/1935 12:00,637.20
3/2/1935 12:00,637.44
3/3/1935 12:00,637.76
3/4/1935 12:00,637.91
3/5/1935 12:00,638.08
3/6/1935 12:00,638.11
3/7/1935 12:00,638.10
3/8/1935 12:00,638.15
3/9/1935 12:00,638.26
3/10/1935 12:00,638.45
3/11/1935 12:00,638.16
3/12/1935 12:00,637.61
3/13/1935 12:00,637.24
3/14/1935 12:00,636.97
3/15/1935 12:00,636.91
3/16/1935 12:00,637.16
3/17/1935 12:00,637.30
3/18/1935 12:00,638.04
3/19/1935 12:00,638.73
3/20/1935 12:00,639.12
3/21/1935 12:00,639.43
3/22/1935 12:00,639.77
3/23/1935 12:00,640.86
3/24/1935 12:00,641.96
3/25/1935 12:00,642.19
3/26/1935 12:00,642.48
3/27/1935 12:00,643.41
3/28/1935 12:00,644.45
3/29/1935 12:00,645.11
3/30/1935 12:00,645.29
3/31/1935 12:00,645.16
4/1/1935 12:00,644.90
4/2/1935 12:00,644.56
4/3/1935 12:00,644.07
4/4/1935 12:00,643.60
4/5/1935 12:00,643.12
4/6/1935 12:00,642.67
4/7/1935 12:00,642.21
4/8/1935 12:00,641.81
4/9/1935 12:00,641.38
4/10/1935 12:00,640.98
4/11/1935 12:00,640.63
4/12/1935 12:00,640.41
4/13/1935 12:00,640.20
4/14/1935 12:00,640.08
4/15/1935 12:00,639.96
4/16/1935 12:00,639.80
4/17/1935 12:00,639.74
4/18/1935 12:00,639.42
4/19/1935 12:00,639.19
4/20/1935 12:00,639.01
4/21/1935 12:00,638.95
4/22/1935 12:00,638.76
4/23/1935 12:00,638.64
4/24/1935 12:00,638.48
4/25/1935 12:00,638.38
4/26/1935 12:00,638.37
4/27/1935 12:00,638.37
4/28/1935 12:00,638.30
4/29/1935 12:00,638.35
4/30/1935 12:00,638.32
5/1/1935 12:00,638.19
5/2/1935 12:00,638.22
5/3/1935 12:00,638.13
5/4/1935 12:00,638.15
5/5/1935 12:00,638.13
5/6/1935 12:00,638.24
5/7/1935 12:00,638.29
5/8/1935 12:00,638.26
5/9/1935 12:00,638.26
5/10/1935 12:00,638.33
5/11/1935 12:00,638.42
5/12/1935 12:00,638.77
5/13/1935 12:00,639.47
5/14/1935 12:00,639.83
5/15/1935 12:00,639.90
5/16/1935 12:00,639.89
5/17/1935 12:00,639.92
5/18/1935 12:00,640.02
5/19/1935 12:00,640.05
5/20/1935 12:00,639.97
5/21/1935 12:00,639.99
5/22/1935 12:00,639.72
5/23/1935 12:00,639.57
5/24/1935 12:00,639.42
5/25/1935 12:00,639.30
5/26/1935 12:00,639.15
5/27/1935 12:00,639.20
5/28/1935 12:00,639.08
5/29/1935 12:00,638.62
5/30/1935 12:00,637.50
5/31/1935 12:00,636.48
6/1/1935 12:00,636.24
6/2/1935 12:00,636.31
6/3/1935 12:00,636.27
6/4/1935 12:00,636.16
6/5/1935 12:00,636.20
6/6/1935 12:00,636.14
6/7/1935 12:00,635.95
6/8/1935 12:00,635.75
6/9/1935 12:00,635.65
6/10/1935 12:00,635.50
6/11/1935 12:00,635.33
6/12/1935 12:00,635.09
6/13/1935 12:00,635.05
6/14/1935 12:00,635.07
6/15/1935 12:00,634.94
6/16/1935 12:00,635.26
6/17/1935 12:00,636.33
6/18/1935 12:00,637.73
6/19/1935 12:00,638.21
6/20/1935 12:00,638.35
6/21/1935 12:00,638.43
6/22/1935 12:00,638.83
6/23/1935 12:00,639.92
6/24/1935 12:00,640.18
6/25/1935 12:00,639.83
6/26/1935 12:00,639.88
6/27/1935 12:00,639.83
6/28/1935 12:00,639.77
6/29/1935 12:00,639.66
6/30/1935 12:00,639.04
7/1/1935 12:00,638.33
7/2/1935 12:00,638.25
7/3/1935 12:00,639.04
7/4/1935 12:00,639.78
7/5/1935 12:00,639.96
7/6/1935 12:00,640.13
7/7/1935 12:00,640.33
7/8/1935 12:00,640.52
7/9/1935 12:00,640.97
7/10/1935 12:00,641.23
7/11/1935 12:00,641.38
7/12/1935 12:00,641.52
7/13/1935 12:00,641.46
7/14/1935 12:00,641.18
7/15/1935 12:00,640.75
7/16/1935 12:00,640.33
7/17/1935 12:00,639.88
7/18/1935 12:00,639.41
7/19/1935 12:00,638.65
7/20/1935 12:00,637.73
7/21/1935 12:00,637.06
7/22/1935 12:00,636.44
7/23/1935 12:00,635.94
7/24/1935 12:00,635.95
7/25/1935 12:00,637.34
7/26/1935 12:00,636.55
7/27/1935 12:00,636.22
7/28/1935 12:00,636.68
7/29/1935 12:00,637.78
7/30/1935 12:00,637.43
7/31/1935 12:00,637.49
8/1/1935 12:00,637.13
8/2/1935 12:00,636.99
8/3/1935 12:00,637.28
8/4/1935 12:00,638.23
8/5/1935 12:00,637.88
8/6/1935 12:00,636.88
8/7/1935 12:00,638.25
8/8/1935 12:00,639.33
8/9/1935 12:00,639.78
8/10/1935 12:00,639.87
8/11/1935 12:00,639.38
8/12/1935 12:00,638.38
8/13/1935 12:00,637.23
8/14/1935 12:00,636.27
8/15/1935 12:00,635.98
8/16/1935 12:00,636.38
8/17/1935 12:00,636.48
8/18/1935 12:00,635.93
8/19/1935 12:00,636.08
8/20/1935 12:00,635.63
8/21/1935 12:00,636.18
8/22/1935 12:00,636.92
8/23/1935 12:00,636.96
8/24/1935 12:00,637.06
8/25/1935 12:00,637.01
8/26/1935 12:00,637.08
8/27/1935 12:00,636.88
8/28/1935 12:00,636.74
8/29/1935 12:00,636.82
8/30/1935 12:00,636.48
8/31/1935 12:00,636.60
9/1/1935 12:00,636.60
9/2/1935 12:00,636.53
9/3/1935 12:00,636.33
9/4/1935 12:00,636.13
9/5/1935 12:00,635.90
9/6/1935 12:00,635.46
9/7/1935 12:00,635.40
9/8/1935 12:00,635.68
9/9/1935 12:00,635.80
9/10/1935 12:00,635.60
9/11/1935 12:00,635.68
9/12/1935 12:00,635.44
9/13/1935 12:00,635.30
9/14/1935 12:00,635.28
9/15/1935 12:00,635.19
9/16/1935 12:00,635.12
9/17/1935 12:00,635.06
9/18/1935 12:00,635.08
9/19/1935 12:00,635.38
9/20/1935 12:00,636.23
9/21/1935 12:00,637.27
9/22/1935 12:00,636.73
9/23/1935 12:00,636.58
9/24/1935 12:00,636.06
9/25/1935 12:00,635.58
9/26/1935 12:00,635.88
9/27/1935 12:00,635.68
9/28/1935 12:00,635.28
9/29/1935 12:00,634.98
9/30/1935 12:00,634.48
10/1/1935 12:00,634.53
10/2/1935 12:00,634.58
10/3/1935 12:00,634.58
10/4/1935 12:00,634.58
10/5/1935 12:00,634.53
10/6/1935 12:00,634.58
10/7/1935 12:00,634.53
10/8/1935 12:00,634.58
10/9/1935 12:00,634.33
10/10/1935 12:00,634.13
10/11/1935 12:00,634.13
10/12/1935 12:00,634.18
10/13/1935 12:00,634.08
10/14/1935 12:00,634.08
10/15/1935 12:00,634.13
10/16/1935 12:00,634.03
10/17/1935 12:00,634.18
10/18/1935 12:00,634.13
10/19/1935 12:00,634.13
10/20/1935 12:00,634.08
10/21/1935 12:00,634.13
10/22/1935 12:00,634.68
10/23/1935 12:00,635.33
10/24/1935 12:00,635.28
10/25/1935 12:00,635.08
10/26/1935 12:00,634.48
10/27/1935 12:00,634.33
10/28/1935 12:00,634.43
10/29/1935 12:00,634.68
10/30/1935 12:00,634.53
10/31/1935 12:00,634.58
11/1/1935 12:00,635.58
11/2/1935 12:00,636.68
11/3/1935 12:00,637.08
11/4/1935 12:00,637.28
11/5/1935 12:00,637.82
11/6/1935 12:00,638.02
11/7/1935 12:00,637.68
11/8/1935 12:00,637.36
11/9/1935 12:00,636.93
11/10/1935 12:00,636.38
11/11/1935 12:00,636.18
11/12/1935 12:00,636.12
11/13/1935 12:00,636.14
11/14/1935 12:00,635.74
11/15/1935 12:00,635.75
11/16/1935 12:00,635.98
11/17/1935 12:00,635.68
11/18/1935 12:00,635.48
11/19/1935 12:00,635.58
11/20/1935 12:00,635.53
11/21/1935 12:00,635.39
11/22/1935 12:00,635.48
11/23/1935 12:00,635.32
11/24/1935 12:00,634.53
11/25/1935 12:00,634.36
11/26/1935 12:00,634.45
11/27/1935 12:00,634.44
11/28/1935 12:00,635.23
11/29/1935 12:00,635.38
11/30/1935 12:00,635.23
12/1/1935 12:00,634.18
12/2/1935 12:00,634.18
12/3/1935 12:00,633.73
12/4/1935 12:00,634.08
12/5/1935 12:00,634.13
12/6/1935 12:00,634.18
12/7/1935 12:00,634.43
12/8/1935 12:00,634.98
12/9/1935 12:00,635.38
12/10/1935 12:00,635.48
12/11/1935 12:00,634.78
12/12/1935 12:00,635.08
12/13/1935 12:00,635.42
12/14/1935 12:00,635.23
12/15/1935 12:00,635.31
12/16/1935 12:00,635.38
12/17/1935 12:00,635.42
12/18/1935 12:00,635.48
12/19/1935 12:00,635.38
12/20/1935 12:00,635.23
12/21/1935 12:00,636.98
12/22/1935 12:00,637.03
12/23/1935 12:00,637.13
12/24/1935 12:00,637.38
12/25/1935 12:00,637.48
12/26/1935 12:00,637.36
12/27/1935 12:00,637.44
12/28/1935 12:00,637.28
12/29/1935 12:00,637.18
12/30/1935 12:00,637.33
12/31/1935 12:00,637.48
1/1/1936 12:00,637.48
1/2/1936 12:00,637.43
1/3/1936 12:00,637.58
1/4/1936 12:00,637.63
1/5/1936 12:00,637.63
1/6/1936 12:00,637.43
1/7/1936 12:00,637.38
1/8/1936 12:00,637.28
1/9/1936 12:00,637.08
1/10/1936 12:00,637.08
1/11/1936 12:00,637.08
1/12/1936 12:00,637.08
1/13/1936 12:00,636.93
1/14/1936 12:00,636.93
1/15/1936 12:00,636.88
1/16/1936 12:00,636.73
1/17/1936 12:00,636.43
1/18/1936 12:00,636.43
1/19/1936 12:00,636.53
1/20/1936 12:00,636.38
1/21/1936 12:00,636.03
1/22/1936 12:00,635.88
1/23/1936 12:00,635.73
1/24/1936 12:00,635.58
1/25/1936 12:00,635.58
1/26/1936 12:00,635.68
1/27/1936 12:00,635.78
1/28/1936 12:00,635.78
1/29/1936 12:00,635.78
1/30/1936 12:00,635.68
1/31/1936 12:00,635.58
2/1/1936 12:00,635.68
2/2/1936 12:00,635.73
2/3/1936 12:00,635.68
2/4/1936 12:00,635.73
2/5/1936 12:00,635.78
2/6/1936 12:00,635.78
2/7/1936 12:00,635.58
2/8/1936 12:00,635.63
2/9/1936 12:00,635.63
2/10/1936 12:00,635.68
2/11/1936 12:00,635.78
2/12/1936 12:00,635.83
2/13/1936 12:00,635.63
2/14/1936 12:00,635.48
2/15/1936 12:00,635.48
2/16/1936 12:00,635.58
2/17/1936 12:00,635.58
2/18/1936 12:00,635.58
2/19/1936 12:00,635.63
2/20/1936 12:00,635.73
2/21/1936 12:00,635.58
2/22/1936 12:00,635.58
2/23/1936 12:00,635.68
2/24/1936 12:00,635.98
2/25/1936 12:00,636.18
2/26/1936 12:00,636.48
2/27/1936 12:00,636.48
2/28/1936 12:00,636.63
2/29/1936 12:00,636.63
3/1/1936 12:00,636.68
3/2/1936 12:00,636.73
3/3/1936 12:00,636.73
3/4/1936 12:00,636.73
3/5/1936 12:00,636.78
3/6/1936 12:00,636.63
3/7/1936 12:00,636.58
3/8/1936 12:00,636.63
3/9/1936 12:00,636.88
3/10/1936 12:00,637.08
3/11/1936 12:00,638.28
3/12/1936 12:00,639.38
3/13/1936 12:00,639.40
3/14/1936 12:00,640.72
3/15/1936 12:00,640.98
3/16/1936 12:00,641.00
3/17/1936 12:00,640.70
3/18/1936 12:00,640.50
3/19/1936 12:00,640.30
3/20/1936 12:00,640.40
3/21/1936 12:00,641.35
3/22/1936 12:00,642.40
3/23/1936 12:00,643.50
3/24/1936 12:00,644.20
3/25/1936 12:00,644.60
3/26/1936 12:00,645.20
3/27/1936 12:00,645.60
3/28/1936 12:00,645.85
3/29/1936 12:00,645.94
3/30/1936 12:00,646.00
3/31/1936 12:00,645.90
4/1/1936 12:00,645.90
4/2/1936 12:00,645.80
4/3/1936 12:00,645.50
4/4/1936 12:00,645.20
4/5/1936 12:00,644.90
4/6/1936 12:00,644.60
4/7/1936 12:00,644.20
4/8/1936 12:00,643.80
4/9/1936 12:00,643.50
4/10/1936 12:00,643.30
4/11/1936 12:00,643.00
4/12/1936 12:00,642.90
4/13/1936 12:00,642.90
4/14/1936 12:00,643.10
4/15/1936 12:00,643.70
4/16/1936 12:00,644.70
4/17/1936 12:00,645.60
4/18/1936 12:00,646.10
4/19/1936 12:00,646.50
4/20/1936 12:00,646.50
4/21/1936 12:00,646.40
4/22/1936 12:00,646.10
4/23/1936 12:00,645.80
4/24/1936 12:00,645.30
4/25/1936 12:00,644.80
4/26/1936 12:00,644.40
4/27/1936 12:00,643.90
4/28/1936 12:00,643.50
4/29/1936 12:00,643.10
4/30/1936 12:00,642.70
5/1/1936 12:00,643.05
5/2/1936 12:00,643.05
5/3/1936 12:00,642.80
5/4/1936 12:00,642.80
5/5/1936 12:00,642.95
5/6/1936 12:00,643.00
5/7/1936 12:00,643.05
5/8/1936 12:00,643.10
5/9/1936 12:00,643.15
5/10/1936 12:00,643.60
5/11/1936 12:00,644.30
5/12/1936 12:00,644.95
5/13/1936 12:00,645.10
5/14/1936 12:00,644.85
5/15/1936 12:00,644.45
5/16/1936 12:00,644.15
5/17/1936 12:00,643.75
5/18/1936 12:00,643.45
5/19/1936 12:00,643.15
5/20/1936 12:00,642.85
5/21/1936 12:00,642.45
5/22/1936 12:00,642.05
5/23/1936 12:00,642.00
5/24/1936 12:00,641.70
5/25/1936 12:00,641.35
5/26/1936 12:00,641.05
5/27/1936 12:00,640.30
5/28/1936 12:00,640.10
5/29/1936 12:00,639.70
5/30/1936 12:00,639.60
5/31/1936 12:00,639.35
6/1/1936 12:00,639.10
6/2/1936 12:00,638.70
6/3/1936 12:00,638.20
6/4/1936 12:00,638.10
6/5/1936 12:00,637.50
6/6/1936 12:00,637.55
6/7/1936 12:00,637.85
6/8/1936 12:00,637.60
6/9/1936 12:00,637.25
6/10/1936 12:00,637.45
6/11/1936 12:00,637.50
6/12/1936 12:00,637.10
6/13/1936 12:00,637.05
6/14/1936 12:00,636.50
6/15/1936 12:00,636.80
6/16/1936 12:00,635.95
6/17/1936 12:00,636.05
6/18/1936 12:00,636.15
6/19/1936 12:00,635.75
6/20/1936 12:00,635.40
6/21/1936 12:00,635.47
6/22/1936 12:00,635.20
6/23/1936 12:00,635.25
6/24/1936 12:00,635.25
6/25/1936 12:00,635.10
6/26/1936 12:00,635.00
6/27/1936 12:00,634.90
6/28/1936 12:00,634.80
6/29/1936 12:00,634.70
6/30/1936 12:00,634.67
7/1/1936 12:00,634.65
7/2/1936 12:00,634.50
7/3/1936 12:00,634.37
7/4/1936 12:00,634.00
7/5/1936 12:00,633.86
7/6/1936 12:00,633.90
7/7/1936 12:00,633.60
7/8/1936 12:00,633.51
7/9/1936 12:00,633.43
7/10/1936 12:00,633.44
7/11/1936 12:00,633.25
7/12/1936 12:00,633.11
7/13/1936 12:00,633.07
7/14/1936 12:00,632.82
7/15/1936 12:00,632.89
7/16/1936 12:00,633.10
7/17/1936 12:00,632.91
7/18/1936 12:00,632.62
7/19/1936 12:00,632.60
7/20/1936 12:00,632.59
7/21/1936 12:00,632.32
7/22/1936 12:00,632.10
7/23/1936 12:00,631.78
7/24/1936 12:00,631.72
7/25/1936 12:00,631.50
7/26/1936 12:00,631.50
7/27/1936 12:00,631.70
7/28/1936 12:00,631.72
7/29/1936 12:00,632.14
7/30/1936 12:00,631.04
7/31/1936 12:00,631.71
8/1/1936 12:00,631.50
8/2/1936 12:00,631.40
8/3/1936 12:00,631.25
8/4/1936 12:00,631.30
8/5/1936 12:00,631.50
8/6/1936 12:00,631.49
8/7/1936 12:00,631.52
8/8/1936 12:00,631.49
8/9/1936 12:00,631.55
8/10/1936 12:00,631.45
8/11/1936 12:00,631.45
8/12/1936 12:00,631.40
8/13/1936 12:00,631.25
8/14/1936 12:00,631.25
8/15/1936 12:00,631.10
8/16/1936 12:00,631.10
8/17/1936 12:00,631.10
8/18/1936 12:00,631.10
8/19/1936 12:00,631.10
8/20/1936 12:00,631.11
8/21/1936 12:00,631.46
8/22/1936 12:00,631.86
8/23/1936 12:00,632.00
8/24/1936 12:00,632.00
8/25/1936 12:00,632.00
8/26/1936 12:00,632.00
8/27/1936 12:00,632.02
8/28/1936 12:00,634.92
8/29/1936 12:00,637.40
8/30/1936 12:00,634.05
8/31/1936 12:00,634.53
9/1/1936 12:00,633.17
9/2/1936 12:00,632.64
9/3/1936 12:00,632.65
9/4/1936 12:00,633.14
9/5/1936 12:00,633.43
9/6/1936 12:00,633.04
9/7/1936 12:00,633.75
9/8/1936 12:00,636.34
9/9/1936 12:00,633.98
9/10/1936 12:00,632.29
9/11/1936 12:00,632.68
9/12/1936 12:00,633.34
9/13/1936 12:00,633.17
9/14/1936 12:00,632.24
9/15/1936 12:00,633.06
9/16/1936 12:00,635.90
9/17/1936 12:00,633.00
9/18/1936 12:00,633.00
9/19/1936 12:00,632.89
9/20/1936 12:00,632.42
9/21/1936 12:00,634.32
9/22/1936 12:00,634.10
9/23/1936 12:00,632.85
9/24/1936 12:00,633.33
9/25/1936 12:00,632.90
9/26/1936 12:00,632.40
9/27/1936 12:00,632.40
9/28/1936 12:00,633.65
9/29/1936 12:00,632.50
9/30/1936 12:00,632.40
10/1/1936 12:00,632.30
10/2/1936 12:00,632.20
10/3/1936 12:00,632.00
10/4/1936 12:00,632.00
10/5/1936 12:00,631.82
10/6/1936 12:00,632.00
10/7/1936 12:00,632.48
10/8/1936 12:00,632.33
10/9/1936 12:00,632.50
10/10/1936 12:00,632.52
10/11/1936 12:00,632.50
10/12/1936 12:00,632.52
10/13/1936 12:00,632.52
10/14/1936 12:00,631.90
10/15/1936 12:00,632.46
10/16/1936 12:00,632.45
10/17/1936 12:00,632.52
10/18/1936 12:00,632.49
10/19/1936 12:00,632.28
10/20/1936 12:00,632.01
10/21/1936 12:00,632.52
10/22/1936 12:00,631.96
10/23/1936 12:00,632.29
10/24/1936 12:00,632.35
10/25/1936 12:00,632.49
10/26/1936 12:00,632.51
10/27/1936 12:00,632.48
10/28/1936 12:00,632.50
10/29/1936 12:00,632.38
10/30/1936 12:00,632.02
10/31/1936 12:00,632.38
11/1/1936 12:00,633.64
11/2/1936 12:00,633.28
11/3/1936 12:00,633.70
11/4/1936 12:00,633.01
11/5/1936 12:00,632.53
11/6/1936 12:00,633.09
11/7/1936 12:00,632.61
11/8/1936 12:00,633.58
11/9/1936 12:00,633.03
11/10/1936 12:00,632.85
11/11/1936 12:00,632.41
11/12/1936 12:00,632.85
11/13/1936 12:00,632.80
11/14/1936 12:00,632.79
11/15/1936 12:00,632.53
11/16/1936 12:00,632.72
11/17/1936 12:00,632.96
11/18/1936 12:00,632.53
11/19/1936 12:00,632.80
11/20/1936 12:00,632.75
11/21/1936 12:00,633.06
11/22/1936 12:00,632.57
11/23/1936 12:00,632.52
11/24/1936 12:00,632.86
11/25/1936 12:00,632.88
11/26/1936 12:00,632.94
11/27/1936 12:00,632.05
11/28/1936 12:00,632.73
11/29/1936 12:00,633.02
11/30/1936 12:00,632.47
12/1/1936 12:00,632.56
12/2/1936 12:00,631.84
12/3/1936 12:00,631.78
12/4/1936 12:00,632.49
12/5/1936 12:00,631.80
12/6/1936 12:00,631.72
12/7/1936 12:00,632.82
12/8/1936 12:00,632.72
12/9/1936 12:00,632.51
12/10/1936 12:00,632.33
12/11/1936 12:00,632.35
12/12/1936 12:00,632.40
12/13/1936 12:00,632.52
12/14/1936 12:00,632.63
12/15/1936 12:00,632.78
12/16/1936 12:00,633.43
12/17/1936 12:00,633.42
12/18/1936 12:00,633.90
12/19/1936 12:00,634.09
12/20/1936 12:00,634.75
12/21/1936 12:00,634.56
12/22/1936 12:00,634.28
12/23/1936 12:00,634.11
12/24/1936 12:00,633.63
12/25/1936 12:00,633.51
12/26/1936 12:00,634.01
12/27/1936 12:00,635.60
12/28/1936 12:00,634.92
12/29/1936 12:00,634.00
12/30/1936 12:00,633.59
12/31/1936 12:00,635.23
1/1/1937 12:00,633.71
1/2/1937 12:00,634.00
1/3/1937 12:00,635.14
1/4/1937 12:00,635.05
1/5/1937 12:00,634.36
1/6/1937 12:00,635.03
1/7/1937 12:00,635.16
1/8/1937 12:00,637.69
1/9/1937 12:00,638.31
1/10/1937 12:00,637.93
1/11/1937 12:00,637.43
1/12/1937 12:00,636.98
1/13/1937 12:00,636.72
1/14/1937 12:00,636.49
1/15/1937 12:00,636.32
1/16/1937 12:00,636.42
1/17/1937 12:00,635.87
1/18/1937 12:00,635.86
1/19/1937 12:00,636.05
1/20/1937 12:00,635.35
1/21/1937 12:00,635.29
1/22/1937 12:00,635.22
1/23/1937 12:00,635.12
1/24/1937 12:00,635.07
1/25/1937 12:00,635.00
1/26/1937 12:00,635.09
1/27/1937 12:00,635.03
1/28/1937 12:00,634.97
1/29/1937 12:00,634.92
1/30/1937 12:00,634.97
1/31/1937 12:00,635.01
2/1/1937 12:00,635.08
2/2/1937 12:00,635.13
2/3/1937 12:00,635.08
2/4/1937 12:00,634.85
2/5/1937 12:00,634.84
2/6/1937 12:00,634.89
2/7/1937 12:00,634.76
2/8/1937 12:00,634.93
2/9/1937 12:00,634.97
2/10/1937 12:00,634.97
2/11/1937 12:00,634.88
2/12/1937 12:00,634.88
2/13/1937 12:00,635.06
2/14/1937 12:00,635.52
2/15/1937 12:00,635.89
2/16/1937 12:00,635.61
2/17/1937 12:00,635.63
2/18/1937 12:00,635.48
2/19/1937 12:00,636.14
2/20/1937 12:00,636.45
2/21/1937 12:00,637.74
2/22/1937 12:00,637.32
2/23/1937 12:00,635.43
2/24/1937 12:00,634.43
2/25/1937 12:00,634.88
2/26/1937 12:00,634.96
2/27/1937 12:00,635.11
2/28/1937 12:00,636.82
3/1/1937 12:00,636.56
3/2/1937 12:00,636.45
3/3/1937 12:00,636.19
3/4/1937 12:00,636.65
3/5/1937 12:00,637.48
3/6/1937 12:00,638.24
3/7/1937 12:00,640.48
3/8/1937 12:00,641.71
3/9/1937 12:00,642.36
3/10/1937 12:00,642.10
3/11/1937 12:00,641.54
3/12/1937 12:00,640.61
3/13/1937 12:00,639.95
3/14/1937 12:00,639.55
3/15/1937 12:00,639.16
3/16/1937 12:00,638.83
3/17/1937 12:00,638.13
3/18/1937 12:00,638.33
3/19/1937 12:00,638.47
3/20/1937 12:00,638.31
3/21/1937 12:00,637.71
3/22/1937 12:00,637.16
3/23/1937 12:00,636.81
3/24/1937 12:00,636.15
3/25/1937 12:00,636.14
3/26/1937 12:00,636.24
3/27/1937 12:00,636.64
3/28/1937 12:00,636.85
3/29/1937 12:00,636.41
3/30/1937 12:00,636.39
3/31/1937 12:00,636.58
4/1/1937 12:00,637.16
4/2/1937 12:00,637.51
4/3/1937 12:00,637.52
4/4/1937 12:00,639.02
4/5/1937 12:00,639.14
4/6/1937 12:00,638.69
4/7/1937 12:00,638.98
4/8/1937 12:00,639.36
4/9/1937 12:00,639.41
4/10/1937 12:00,639.73
4/11/1937 12:00,639.57
4/12/1937 12:00,639.32
4/13/1937 12:00,639.24
4/14/1937 12:00,639.31
4/15/1937 12:00,639.40
4/16/1937 12:00,639.61
4/17/1937 12:00,639.86
4/18/1937 12:00,640.21
4/19/1937 12:00,640.45
4/20/1937 12:00,640.71
4/21/1937 12:00,640.95
4/22/1937 12:00,641.05
4/23/1937 12:00,641.15
4/24/1937 12:00,641.25
4/25/1937 12:00,641.37
4/26/1937 12:00,641.57
4/27/1937 12:00,641.73
4/28/1937 12:00,641.81
4/29/1937 12:00,641.88
4/30/1937 12:00,641.94
5/1/1937 12:00,642.01
5/2/1937 12:00,642.00
5/3/1937 12:00,641.97
5/4/1937 12:00,641.98
5/5/1937 12:00,641.99
5/6/1937 12:00,642.05
5/7/1937 12:00,642.01
5/8/1937 12:00,641.89
5/9/1937 12:00,641.77
5/10/1937 12:00,641.68
5/11/1937 12:00,641.54
5/12/1937 12:00,641.55
5/13/1937 12:00,641.46
5/14/1937 12:00,641.24
5/15/1937 12:00,641.10
5/16/1937 12:00,641.00
5/17/1937 12:00,641.01
5/18/1937 12:00,640.95
5/19/1937 12:00,640.82
5/20/1937 12:00,640.83
5/21/1937 12:00,640.80
5/22/1937 12:00,640.95
5/23/1937 12:00,640.81
5/24/1937 12:00,640.82
5/25/1937 12:00,640.74
5/26/1937 12:00,640.73
5/27/1937 12:00,640.78
5/28/1937 12:00,640.60
5/29/1937 12:00,640.71
5/30/1937 12:00,640.65
5/31/1937 12:00,640.88
6/1/1937 12:00,640.81
6/2/1937 12:00,640.69
6/3/1937 12:00,640.62
6/4/1937 12:00,640.62
6/5/1937 12:00,640.52
6/6/1937 12:00,640.66
6/7/1937 12:00,640.48
6/8/1937 12:00,640.06
6/9/1937 12:00,640.16
6/10/1937 12:00,640.16
6/11/1937 12:00,640.06
6/12/1937 12:00,640.10
6/13/1937 12:00,639.98
6/14/1937 12:00,640.11
6/15/1937 12:00,640.00
6/16/1937 12:00,639.73
6/17/1937 12:00,639.69
6/18/1937 12:00,639.81
6/19/1937 12:00,639.91
6/20/1937 12:00,640.21
6/21/1937 12:00,640.21